STELLA

Last updated on Wed Sep 09 2026 00:03:37 GMT+0000 (Coordinated Universal Time)

1 22824U 93061B 26251.61288131 -.00000046 00000+0 -28710-6 0 9998 2 22824 98.7646 316.1311 0006363 4.4340 105.6048 14.27472258716672
UTC large
Height (km)
Speed (km/s)
/
Latitude / Longitude
Inclination (degrees)
Orbital Period (minutes)
Azimuth
Elevation
Range (km)
Doppler Factor

Next 0 passes for location: London (51.5072 / 0.1276)

No passes found over London.
STELLA